Tampa, FL

5:54 AM EDT on June 23, 2017 (GMT -0400)
Tampa International

Weather History for KTPA - November, 2011

Change the Weather History Date:

Friday, November 11, 2011

  Actual Average Record
Temperature  
Mean Temperature 58 °F 70 °F  
Max Temperature 67 °F 79 °F 88 °F (1986)
Min Temperature 49 °F 61 °F 40 °F (1892)
Degree Days  
Heating Degree Days 7 1  
Month to date heating degree days 8 9  
Since 1 July heating degree days 9 13  
Cooling Degree Days 0 6  
Month to date cooling degree days 51 75  
Year to date cooling degree days 3741 3441  
Growing Degree Days 7 (Base 50)    
Moisture  
Dew Point 33 °F    
Average Humidity 49    
Maximum Humidity 72    
Minimum Humidity 26    
Precipitation  
Precipitation 0.00 in 0.05 in 0.83 in (1968)
Month to date precipitation 0.03 0.57  
Year to date precipitation 51.82 42.85  
Sea Level Pressure  
Sea Level Pressure 30.16 in    
Wind  
Wind Speed 10 mph (North)    
Max Wind Speed 23 mph    
Max Gust Speed 28 mph    
Visibility 10 miles    
Events      
T = Trace of Precipitation, MM = Missing Value Source: NWS Daily Summary

Daily Weather History Graph

Daily Weather History Graph

Search for Another Location

Airport or City:

Trip Planner

Search our weather history database for the weather conditions in past years. The results will help you decide how hot, cold, wet, or windy it might be!

Date:

Astronomy

Nov. 11, 2011 Rise Set
Actual Time 6:48 AM EST 5:39 PM EST
Civil Twilight 6:23 AM EST 6:04 PM EST
Nautical Twilight 5:55 AM EST 6:32 PM EST
Astronomical Twilight 5:27 AM EST 7:00 PM EST
Moon 6:15 PM EST (11/11) 7:28 AM EST (11/11)
Length of Visible Light 11h 40m
Length of Day
10h 51m
Full, 99% of the Moon is Illuminated
Nov 11
Full
Nov 18
Last Quarter
Nov 25
New
Dec 2
First Quarter
Dec 10
Full

Hourly Weather History & Observations

Time (EST) Temp. Dew Point Humidity Pressure Visibility Wind Dir Wind Speed Gust Speed Precip Events Conditions
12:53 AM 60.8 °F 44.6 °F 55% 30.03 in 10.0 mi North 16.1 mph 23.0 mph N/A   Mostly Cloudy
1:53 AM 57.9 °F 39.0 °F 49% 30.05 in 10.0 mi North 16.1 mph 25.3 mph N/A   Mostly Cloudy
2:53 AM 55.0 °F 37.0 °F 51% 30.06 in 10.0 mi North 16.1 mph 21.9 mph N/A   Scattered Clouds
3:53 AM 53.6 °F 32.0 °F 44% 30.08 in 10.0 mi North 19.6 mph 25.3 mph N/A   Scattered Clouds
4:53 AM 52.0 °F 30.9 °F 45% 30.10 in 10.0 mi North 12.7 mph - N/A   Partly Cloudy
5:53 AM 50.0 °F 30.0 °F 46% 30.13 in 10.0 mi North 13.8 mph 20.7 mph N/A   Partly Cloudy
6:53 AM 48.2 °F 28.4 °F 46% 30.15 in 10.0 mi North 11.5 mph - N/A   Scattered Clouds
7:53 AM 50.0 °F 28.9 °F 44% 30.18 in 10.0 mi North 12.7 mph - N/A   Scattered Clouds
8:53 AM 52.0 °F 27.0 °F 38% 30.20 in 10.0 mi North 15.0 mph 24.2 mph N/A   Scattered Clouds
9:53 AM 55.4 °F 26.6 °F 33% 30.21 in 10.0 mi North 13.8 mph - N/A   Scattered Clouds
10:53 AM 57.2 °F 28.4 °F 33% 30.20 in 10.0 mi North 9.2 mph - N/A   Partly Cloudy
11:53 AM 61.0 °F 28.0 °F 29% 30.18 in 10.0 mi North 8.1 mph - N/A   Scattered Clouds
12:53 PM 63.0 °F 30.0 °F 29% 30.15 in 10.0 mi NNW 8.1 mph - N/A   Partly Cloudy
1:53 PM 64.9 °F 28.9 °F 26% 30.14 in 10.0 mi North 8.1 mph - N/A   Partly Cloudy
2:53 PM 66.0 °F 30.0 °F 26% 30.13 in 10.0 mi Variable 6.9 mph - N/A   Partly Cloudy
3:53 PM 66.9 °F 30.9 °F 26% 30.14 in 10.0 mi NNE 10.4 mph - N/A   Scattered Clouds
4:53 PM 66.0 °F 32.0 °F 28% 30.15 in 10.0 mi North 6.9 mph - N/A   Partly Cloudy
5:53 PM 62.6 °F 32.0 °F 32% 30.16 in 10.0 mi NNE 4.6 mph - N/A   Partly Cloudy
6:53 PM 61.0 °F 34.0 °F 36% 30.18 in 10.0 mi NE 3.5 mph - N/A   Clear
7:53 PM 57.9 °F 35.1 °F 42% 30.20 in 10.0 mi NNE 4.6 mph - N/A   Clear
8:53 PM 55.9 °F 36.0 °F 47% 30.22 in 10.0 mi NNE 4.6 mph - N/A   Clear
9:53 PM 55.9 °F 36.0 °F 47% 30.24 in 10.0 mi Variable 3.5 mph - N/A   Clear
10:53 PM 54.0 °F 39.9 °F 59% 30.25 in 10.0 mi NE 4.6 mph - N/A   Clear
11:53 PM 53.1 °F 42.1 °F 66% 30.25 in 10.0 mi NE 4.6 mph - N/A   Clear